TimeEST,TemperatureF,Dew PointF,Humidity,Sea Level PressureIn,VisibilityMPH,Wind Direction,Wind SpeedMPH,Gust SpeedMPH,PrecipitationIn,Events,Conditions,WindDirDegrees,DateUTC
12:56 AM,16.0,1.0,52,30.33,10.0,WNW,11.5,-,N/A,,Partly Cloudy,300,2013-01-22 05:56:00
1:56 AM,15.1,-0.9,49,30.34,10.0,NW,12.7,-,N/A,,Clear,320,2013-01-22 06:56:00
2:56 AM,14.0,-2.0,49,30.35,10.0,NW,12.7,20.7,N/A,,Clear,310,2013-01-22 07:56:00
3:56 AM,14.0,-2.0,49,30.36,10.0,WNW,10.4,-,N/A,,Clear,300,2013-01-22 08:56:00
4:56 AM,14.0,-2.0,49,30.36,10.0,NW,11.5,-,N/A,,Mostly Cloudy,310,2013-01-22 09:56:00
5:56 AM,12.9,-0.9,54,30.38,10.0,NW,12.7,-,N/A,,Mostly Cloudy,310,2013-01-22 10:56:00
6:56 AM,12.9,-4.0,47,30.41,10.0,WNW,12.7,-,N/A,,Mostly Cloudy,300,2013-01-22 11:56:00
7:56 AM,10.9,-4.0,51,30.43,10.0,NW,8.1,-,N/A,,Partly Cloudy,310,2013-01-22 12:56:00
8:56 AM,12.9,-2.9,49,30.44,10.0,WNW,9.2,-,N/A,,Partly Cloudy,290,2013-01-22 13:56:00
9:56 AM,15.1,-2.0,47,30.46,10.0,WNW,10.4,-,N/A,,Partly Cloudy,290,2013-01-22 14:56:00
10:56 AM,17.1,-2.0,43,30.47,10.0,WNW,4.6,-,N/A,,Partly Cloudy,290,2013-01-22 15:56:00
11:56 AM,19.0,-2.9,38,30.46,10.0,West,9.2,-,N/A,,Partly Cloudy,280,2013-01-22 16:56:00
12:56 PM,19.9,-2.9,37,30.43,10.0,West,8.1,-,N/A,,Partly Cloudy,260,2013-01-22 17:56:00
1:56 PM,21.9,-2.9,34,30.40,10.0,WSW,13.8,-,N/A,,Partly Cloudy,250,2013-01-22 18:56:00
2:56 PM,21.9,-2.9,34,30.40,10.0,West,12.7,18.4,N/A,,Mostly Cloudy,260,2013-01-22 19:56:00
3:56 PM,23.0,-2.9,32,30.41,10.0,West,11.5,-,N/A,,Mostly Cloudy,270,2013-01-22 20:56:00
4:56 PM,21.9,-2.9,34,30.40,10.0,West,11.5,-,N/A,,Mostly Cloudy,270,2013-01-22 21:56:00
5:56 PM,21.0,-2.9,35,30.38,10.0,WNW,9.2,-,N/A,,Mostly Cloudy,300,2013-01-22 22:56:00
6:56 PM,19.0,-0.9,42,30.41,10.0,WNW,9.2,-,N/A,,Mostly Cloudy,290,2013-01-22 23:56:00
7:56 PM,19.0,-0.9,42,30.40,10.0,WNW,5.8,-,N/A,,Scattered Clouds,300,2013-01-23 00:56:00
8:56 PM,18.0,-0.0,45,30.40,10.0,NW,8.1,-,N/A,,Scattered Clouds,310,2013-01-23 01:56:00
9:56 PM,18.0,-0.0,45,30.40,10.0,WNW,4.6,-,N/A,,Mostly Cloudy,300,2013-01-23 02:56:00
10:56 PM,19.0,1.9,47,30.41,10.0,West,6.9,-,N/A,,Overcast,280,2013-01-23 03:56:00
11:56 PM,19.0,3.0,50,30.41,10.0,WNW,4.6,-,N/A,,Overcast,290,2013-01-23 04:56:00